Location: Christianberg
(48.9086°N, 14.0209°E)
Time: 21:24:27
(UTC+00:00)

Cosmos 2058 - Pass Details

Date: 20 June 2021
Orbit: 562 x 582 km, 82.5° (Epoch: 04 August)

Event Time Altitude Azimuth Distance (km) Brightness Sun altitude
Exits shadow 00:24:27 29° 193° (SSW) 1,039 3.6 -15.5°
Maximum altitude 00:26:27 84° 279° (W) 574 2.8 -15.4°
Drops below altitude 10° 00:30:35 10° 8° (N) 1,870 6.8 -15.2°
Sets 00:32:46 0° 10° (N) 2,773 8.1 -15.1°
